• Join FlightAware (Why Join?)
  • Login
  • US Flag 
03:51PM EST


 

Airport Tracker/Info


-or-


 

Live Flight TrackerFlight Track Log ✈ N789EX ✈ 17-Jan-2014 ✈ KBFI - KMWH

Flight Track Log - Related Links

Times and Time Zones

All times are in EST time to prevent confusion due to time zone crossing. See the N789EX flight status page for this flight to view local times or setup timezone preferences in your user account.

Time Position Orientation Groundspeed Altitude Reporting Facility
EST Latitude Longitude Course Direction KTS MPH feet Rate Location/Type
01:43PM 47.5117 -122.2870 150° Southeast 192 221 900  Level FlightAware ADS-B
01:43PM 47.5044 -122.2810 151° Southeast 209 241 1,200 3,000 Climbing FlightAware ADS-B
01:44PM 47.4909 -122.2690 149° Southeast 222 255 2,100 3,060 Climbing FlightAware ADS-B
01:44PM 47.4767 -122.2570 150° Southeast 242 278 2,800 2,820 Climbing FlightAware ADS-B
01:44PM 47.4716 -122.2530 152° Southeast 248 285 3,100 3,300 Climbing FlightAware ADS-B
01:44PM 47.4676 -122.2490 146° Southeast 252 290 3,300 2,520 Climbing FlightAware ADS-B
01:44PM 47.4644 -122.2440 133° Southeast 256 295 3,400 2,520 Climbing FlightAware ADS-B
01:44PM 47.4620 -122.2410 140° Southeast 259 298 3,600 3,420 Climbing FlightAware ADS-B
01:44PM 47.4599 -122.2360 122° Southeast 261 300 3,800 3,000 Climbing FlightAware ADS-B
01:44PM 47.4581 -122.2320 124° Southeast 264 304 3,900 3,000 Climbing FlightAware ADS-B
01:44PM 47.4565 -122.2270 115° Southeast 264 304 4,100 4,500 Climbing FlightAware ADS-B
01:44PM 47.4538 -122.2170 112° Southeast 263 303 4,500 4,800 Climbing FlightAware ADS-B
01:44PM 47.4495 -122.2000 111° Southeast 265 305 5,300 3,840 Climbing FlightAware ADS-B
01:45PM 47.4473 -122.1890 106° East 268 308 5,600 3,240 Climbing FlightAware ADS-B
01:45PM 47.4462 -122.1810 101° East 272 313 5,900 3,960 Climbing FlightAware ADS-B
01:45PM 47.4447 -122.1660 98° East 277 319 6,400 3,840 Climbing FlightAware ADS-B
01:45PM 47.4440 -122.1540 95° East 278 320 6,800 3,960 Climbing FlightAware ADS-B
01:45PM 47.4430 -122.1260 93° East 280 322 7,800 3,840 Climbing FlightAware ADS-B
01:45PM 47.4424 -122.0960 92° East 286 329 8,800 3,660 Climbing FlightAware ADS-B
01:46PM 47.4417 -122.0660 92° East 292 336 9,700 2,460 Climbing FlightAware ADS-B
01:46PM 47.4398 -122.0010 92° East 335 386 10,700 2,040 Climbing FlightAware ADS-B
01:47PM 47.4373 -121.9280 93° East 369 425 11,800 2,820 Climbing FlightAware ADS-B
01:47PM 47.4345 -121.8530 93° East 380 437 13,500 3,360 Climbing FlightAware ADS-B
01:48PM 47.4314 -121.7720 93° East 391 450 15,200 3,180 Climbing FlightAware ADS-B
01:48PM 47.4284 -121.6840 93° East 402 463 16,900 3,120 Climbing FlightAware ADS-B
01:49PM 47.4275 -121.5980 91° East 412 474 18,500 2,040 Climbing FlightAware ADS-B
01:49PM 47.4268 -121.5090 91° East 446 513 19,000 480 Climbing FlightAware ADS-B
01:50PM 47.4256 -121.4140 91° East 472 543 19,000  Level FlightAware ADS-B
01:50PM 47.4240 -121.3160 91° East 474 545 19,000  Level FlightAware ADS-B
01:51PM 47.4223 -121.2190 91° East 472 543 19,000  Level FlightAware ADS-B
01:51PM 47.4206 -121.1230 91° East 470 541 19,000  Level FlightAware ADS-B
01:52PM 47.4188 -121.0260 92° East 471 542 19,000  Level FlightAware ADS-B
01:52PM 47.4169 -120.9300 92° East 472 543 19,000  Level FlightAware ADS-B
01:53PM 47.4150 -120.8330 92° East 472 543 19,000 -240 Level FlightAware ADS-B
01:53PM 47.4130 -120.7360 92° East 464 534 18,800 -540 Descending FlightAware ADS-B
01:54PM 47.4111 -120.6430 92° East 450 518 18,500 -840 Descending FlightAware ADS-B
01:54PM 47.4090 -120.5500 92° East 440 506 18,000 -1,500 Descending FlightAware ADS-B
01:55PM 47.4069 -120.4600 92° East 432 497 17,000 -1,020 Descending FlightAware ADS-B
01:56PM 47.4027 -120.2860 92° East 426 490 16,500 -480 Descending FlightAware ADS-B
01:56PM 47.4003 -120.1910 92° East 426 490 16,300 -1,380 Descending FlightAware ADS-B
01:58PM 47.3947 -120.0003 92° East 421 484 14,200 -1,860 Descending Seattle Center
01:59PM 47.3850 -119.8375 95° East 403 464 12,300 -1,440 Descending Seattle Center
02:00PM 47.3058 -119.7217 135° Southeast 370 426 11,300 -1,440 Descending Seattle Center
02:01PM 47.2392 -119.6347 138° Southeast 316 364 9,400 -2,220 Descending Seattle Center
02:02PM 47.1806 -119.5506 136° Southeast 297 342 6,900 -2,460 Descending Seattle Center
02:03PM 47.1250 -119.4725 136° Southeast 281 323 4,400 -1,440 Descending Seattle Center
02:04PM 47.0703 -119.4003 138° Southeast 247 284 4,000 -240 Descending Seattle Center
02:05PM 47.0297 -119.3431 136° Southeast 206 237 4,000 -300 Level Seattle Center
02:06PM 47.0239 -119.2736 97° East 200 230 3,400 -600 Descending Seattle Center
02:07PM 47.0661 -119.2511 20° North 181 208 2,900 -300 Descending Seattle Center
02:08PM 47.1122 -119.2733 342° North 174 200 2,900 -480 Level Seattle Center
02:09PM 47.1539 -119.2928 342° North 152 175 2,000 -840 Descending Seattle Center
02:10PM 47.1919 -119.3108 342° North 146 168 1,200 -420 Descending Seattle Center
02:11PM 47.2233 -119.3267 341° North 147 169 1,200  Level Seattle Center